Regional Weather Roundup
Issued by NWS

Home | Current Version | Previous Version | Graphics & Text | Print | Product List | Glossary On
Versions: 1 2 3 4 5 6 7 8 9 10 11 12 13 14 15 16 17 18 19 20 21 22 23 24 25 26 27 28 29 30 31 32 33 34 35 36 37 38 39 40 41 42 43 44 45 46 47 48 49 50
000
ASUS44 KMEG 300010
RWRTN
TENNESSEE HOURLY STATE WEATHER ROUNDUP
NATIONAL WEATHER SERVICE MEMPHIS TN
700 PM CDT TUE JUL 29 2014

TNZ002-004-019-021-049-052-054-088>092-300100-
WEST TENNESSEE

CITY           SKY/WX    TMP DP  RH WIND       PRES   REMARKS
MEMPHIS INTL   MOSUNNY   77  54  44 N9        30.10F
NWS MEMPHIS      N/A     76 N/A N/A MISG        N/A
JACKSON        MOSUNNY   75  54  47 NW6       30.10S
DYERSBURG      MOSUNNY   75  50  41 NW6       30.11S
UNION CITY     SUNNY     73  55  53 N5        30.08F
PARIS          SUNNY     72  56  57 CALM      30.09F
LEXINGTON      SUNNY     73  55  53 NW5       30.08S
SAVANNAH       SUNNY     75  54  46 N5        30.09F
$$

TNZ008-025-027-028-033-062-065-066-300100-
NORTH MIDDLE TENNESSEE

CITY           SKY/WX    TMP DP  RH WIND       PRES   REMARKS
NASHVILLE      PTCLDY    77  52  41 N12       30.06F
DICKSON        SUNNY     73  52  46 NW6       30.08F
PORTLAND       PTCLDY    73  54  49 N8        30.07S
CLARKSVILLE    SUNNY     76  51  41 N12       30.07F
LEBANON        CLEAR     75  52  44 N7        30.06S
SMYRNA         PTCLDY    76  54  46 N9        30.07S
MURFREESBORO   CLEAR     76  54  46 NE7       30.06S
COOKEVILLE     CLEAR     72  57  60 CALM      30.08S
LIVINGSTON       N/A     69  53  56 N5        30.09S
CROSSVILLE     CLEAR     69  52  54 N6        30.11S
$$

TNZ061-075-076-078-094-096-097-300100-
SOUTH MIDDLE TENNESSEE

CITY           SKY/WX    TMP DP  RH WIND       PRES   REMARKS
LEWISBURG      CLEAR     75  53  46 NW3       30.07S
FAYETTEVILLE   CLEAR     72  52  49 N8        30.07F
TULLAHOMA      CLEAR     72  54  53 N5        30.08F
WINCHESTER     CLEAR     72  55  56 N6        30.08S
MCMINNVILLE    CLEAR     72  57  60 N3        30.08S
COLUMBIA       CLEAR     75  54  46 CALM      30.06F
SHELBYVILLE    CLEAR     73  57  56 N3        30.07F
$$

TNZ017-018-042-046-047-300100-
NORTHEAST TENNESSEE

CITY           SKY/WX    TMP DP  RH WIND       PRES   REMARKS
TRI CITIES     PTCLDY    68  50  52 NW13      30.06R
ELIZABETHTON   CLEAR     66  52  59 VRB5        N/A
$$

TNZ012-013-036-069-073-074-300100-
CENTRAL EAST TENNESSEE

CITY           SKY/WX    TMP DP  RH WIND       PRES   REMARKS
KNOXVILLE      PTCLDY    71  50  47 N10       30.05R
OAK RIDGE      PTCLDY    72  51  47 VRB5      30.08R
GATLINBURG     CLEAR     70  50  49 N5        30.06R
MORRISTOWN     CLEAR     68  52  56 N7        30.08R
$$

TNZ083-085-099-300100-
SOUTHEAST TENNESSEE

CITY           SKY/WX    TMP DP  RH WIND       PRES   REMARKS
CHATTANOOGA    PTCLDY    75  50  41 N12       30.06R
$$

SKY/WX REPORTED AS FAIR MEANS FEW OR NO CLOUDS BELOW
12 THOUSAND FEET.




USA.gov is the U.S. government's official web portal to all federal, state and local government web resources and services.